Location: Unspecified
(43.4354°N, 0.0000°E)
Time: 02:06:56
(UTC+00:00)

A-11 Canister half - Pass Details

Date: 26 June 2019
Orbit: 1514 x 1686 km, 47.2° (Epoch: 13 October)

Event Time Altitude Azimuth Distance (km) Brightness Sun altitude
Rises 14:06:26 0° 289° (WNW) 4,856 11.9 57.6°
Reaches altitude 10° 14:09:36 10° 290° (WNW) 3,846 11.6 57.1°
Maximum altitude 14:19:25 88° 21° (NNE) 1,579 10.2 55.5°
Drops below altitude 10° 14:28:50 10° 112° (ESE) 3,707 10.9 53.9°
Sets 14:31:50 0° 113° (ESE) 4,673 11.3 53.4°
